Date String (YYYY-MM-DD hh:mm:ss) UTC,Instrument flags,Ambient pressure (hPa),Sample flow (lpm),Bypass flow (lpm),Sample temperature (°C),Ambient temperature (°C),ASC tube jacket temperature (°C),LED temperature (°C),Box temperature (°C),Sample RH (%),Span deviation,Mass concentration (μg/m³),Mass concentration (μg/m³),Mass concentration (μg/m³)
DateTimeUTC,F1_M11,P_M11,Q1_M11,Q2_M11,T1_M11,T2_M11,T3_M11,T4_M11,T5_M11,U1_M11,ZSPAN_M11,X0_M11,X2_M11,X1_M11
2022-08-04 19:00:00,,0828.2,4.99,0.00,29.2,27.3,00.0,37.9,31.0,27.5,0002.2,0025.70,0010.19,0007.90
2022-08-04 19:01:00,,0828.2,5.01,0.00,29.2,27.4,00.0,37.9,31.0,27.4,0002.2,0025.71,0010.20,0007.88
2022-08-04 19:02:00,,0828.2,5.00,0.00,29.2,27.6,00.0,37.9,31.1,27.2,0002.2,0025.51,0010.15,0007.85
2022-08-04 19:03:00,,0828.2,5.00,0.00,29.3,27.8,00.0,38.0,31.2,27.0,0002.6,0024.47,0010.09,0007.83
2022-08-04 19:04:00,,0828.2,5.00,0.00,29.3,28.0,00.0,38.0,31.2,26.9,0002.6,0023.28,0010.04,0007.81
2022-08-04 19:05:00,,0828.2,5.00,0.00,29.3,28.0,00.0,38.0,31.3,27.1,0002.5,0022.32,0010.07,0007.77
2022-08-04 19:06:00,,0828.2,5.00,0.00,29.3,27.5,00.0,38.0,31.1,26.8,0002.3,0022.98,0010.09,0007.73
2022-08-04 19:07:00,,0828.2,4.99,0.00,29.3,27.2,00.0,38.0,31.1,26.6,0002.0,0023.33,0010.05,0007.71
2022-08-04 19:08:00,,0828.1,5.01,0.00,29.2,27.2,00.0,37.9,31.1,26.3,0001.7,0024.26,0010.11,0007.69
2022-08-04 19:09:00,,0828.2,4.99,0.00,29.2,27.3,00.0,37.9,31.0,26.3,0001.3,0024.14,0010.10,0007.65
2022-08-04 19:10:00,,0828.2,5.00,0.00,29.2,27.5,00.0,37.9,31.0,25.2,0001.3,0023.38,0010.04,0007.58
2022-08-04 19:11:00,,0828.2,5.00,0.00,29.2,27.7,00.0,37.9,31.1,24.2,0001.1,0021.38,0009.89,0007.50
2022-08-04 19:12:00,,0828.2,5.00,0.00,29.3,27.9,00.0,38.0,31.2,23.2,0000.9,0021.53,0009.73,0007.41
2022-08-04 19:13:00,,0828.3,5.01,0.00,29.3,28.1,00.0,38.0,31.3,24.0,0000.5,0021.80,0009.62,0007.34
2022-08-04 19:14:00,,0828.2,5.01,0.00,29.3,27.8,00.0,38.0,31.2,24.7,0000.6,0023.24,0009.61,0007.27
2022-08-04 19:15:00,,0828.3,4.99,0.00,29.3,27.2,00.0,38.0,31.1,25.4,0001.2,0024.01,0009.69,0007.25
2022-08-04 19:16:00,,0828.2,5.01,0.00,29.3,27.1,00.0,37.9,31.1,25.7,0001.4,0024.32,0009.70,0007.24
2022-08-04 19:17:00,,0828.1,4.99,0.00,29.2,27.2,00.0,37.9,31.0,25.1,0001.3,0024.10,0009.66,0007.22
2022-08-04 19:18:00,,0828.2,5.01,0.00,29.2,27.4,00.0,37.9,31.0,25.8,0001.0,0023.83,0009.65,0007.19
2022-08-04 19:19:00,,0828.1,5.00,0.00,29.2,27.6,00.0,37.9,31.0,26.5,0001.2,0022.79,0009.62,0007.20
2022-08-04 19:20:00,,0828.1,4.99,0.00,29.2,27.8,00.0,37.9,31.1,26.3,0001.4,0022.53,0009.58,0007.22
2022-08-04 19:21:00,,0828.1,5.01,0.00,29.3,28.0,00.0,38.0,31.2,25.5,0001.5,0022.55,0009.57,0007.23
2022-08-04 19:22:00,,0828.1,4.99,0.00,29.3,28.0,00.0,38.0,31.3,25.4,0001.4,0023.52,0009.72,0007.25
2022-08-04 19:23:00,,0828.1,5.00,0.00,29.3,27.5,00.0,37.9,31.1,25.2,0001.6,0023.37,0009.78,0007.29
2022-08-04 19:24:00,,0828.1,5.01,0.00,29.3,27.1,00.0,37.9,31.1,25.1,0001.8,0023.26,0009.74,0007.32
2022-08-04 19:25:00,,0828.1,5.00,0.00,29.2,27.2,00.0,37.9,31.1,24.8,0001.5,0022.25,0009.69,0007.34
2022-08-04 19:26:00,,0828.0,4.99,0.00,29.2,27.3,00.0,37.9,31.0,24.2,0001.1,0022.15,0009.58,0007.33
2022-08-04 19:27:00,,0828.0,5.00,0.00,29.2,27.5,00.0,37.9,31.0,24.2,0001.1,0022.24,0009.51,0007.31
2022-08-04 19:28:00,,0828.1,4.99,0.00,29.2,27.7,00.0,37.9,31.1,24.6,0001.0,0022.30,0009.48,0007.28
2022-08-04 19:29:00,,0828.0,5.00,0.00,29.3,27.9,00.0,37.9,31.2,24.4,0001.2,0021.98,0009.50,0007.26
2022-08-04 19:30:00,,0828.0,5.00,0.00,29.3,28.1,00.0,38.0,31.3,24.0,0001.3,0021.95,0009.52,0007.23
2022-08-04 19:31:00,,0828.0,5.00,0.00,29.3,27.8,00.0,38.0,31.2,24.0,0001.2,0021.93,0009.56,0007.18
2022-08-04 19:32:00,,0828.0,4.99,0.00,29.3,27.3,00.0,37.9,31.2,23.8,0001.2,0021.63,0009.54,0007.15
2022-08-04 19:33:00,,0828.0,5.01,0.00,29.3,27.2,00.0,37.9,31.1,24.2,0001.3,0020.39,0009.42,0007.13
2022-08-04 19:34:00,,0827.9,5.00,0.00,29.2,27.2,00.0,37.9,31.0,24.5,0001.2,0020.73,0009.38,0007.12
2022-08-04 19:35:00,,0827.9,4.99,0.00,29.2,27.4,00.0,37.9,31.0,24.6,0001.2,0020.80,0009.42,0007.10
2022-08-04 19:36:00,,0828.0,5.00,0.00,29.2,27.6,00.0,37.9,31.1,24.5,0001.1,0020.45,0009.47,0007.09
2022-08-04 19:37:00,,0828.0,5.00,0.00,29.2,27.8,00.0,37.9,31.2,24.0,0001.2,0021.04,0009.47,0007.09
2022-08-04 19:38:00,,0827.9,5.00,0.00,29.3,28.0,00.0,38.0,31.3,23.8,0001.5,0021.27,0009.47,0007.09
2022-08-04 19:39:00,,0828.0,5.00,0.00,29.3,28.0,00.0,38.0,31.3,24.0,0002.0,0019.98,0009.41,0007.10
2022-08-04 19:40:00,,0828.0,5.00,0.00,29.3,27.6,00.0,38.0,31.2,24.3,0002.2,0020.00,0009.38,0007.11
2022-08-04 19:41:00,,0827.9,5.01,0.00,29.3,27.1,00.0,37.9,31.1,24.5,0002.1,0020.25,0009.36,0007.12
2022-08-04 19:42:00,,0827.8,4.99,0.00,29.2,27.1,00.0,37.9,31.1,24.3,0002.2,0020.19,0009.28,0007.11
2022-08-04 19:43:00,,0828.0,5.01,0.00,29.2,27.3,00.0,37.9,31.0,24.5,0002.3,0020.21,0009.28,0007.12
2022-08-04 19:44:00,,0827.8,4.99,0.00,29.2,27.4,00.0,37.9,31.0,24.7,0002.7,0020.71,0009.38,0007.13
2022-08-04 19:45:00,,0827.9,5.00,0.00,29.2,27.6,00.0,37.9,31.1,24.7,0002.8,0019.74,0009.36,0007.11
2022-08-04 19:46:00,,0827.9,5.00,0.00,29.2,27.9,00.0,37.9,31.2,24.2,0002.3,0019.06,0009.27,0007.09
2022-08-04 19:47:00,,0827.8,4.99,0.00,29.3,28.1,00.0,38.0,31.3,24.1,0002.2,0020.05,0009.29,0007.07
2022-08-04 19:48:00,,0827.9,5.00,0.00,29.3,27.9,00.0,38.0,31.2,24.3,0002.4,0020.20,0009.27,0007.07
2022-08-04 19:49:00,,0827.9,5.01,0.00,29.3,27.3,00.0,37.9,31.1,24.2,0002.1,0019.86,0009.34,0007.07
2022-08-04 19:50:00,,0827.8,5.00,0.00,29.2,27.2,00.0,37.9,31.1,24.9,0001.9,0020.37,0009.49,0007.08
2022-08-04 19:51:00,,0827.9,4.99,0.00,29.2,27.2,00.0,37.9,31.0,24.7,0002.2,0020.27,0009.50,0007.09
2022-08-04 19:52:00,,0827.8,5.02,0.00,29.2,27.4,00.0,37.9,31.0,24.8,0002.4,0020.33,0009.56,0007.11
2022-08-04 19:53:00,,0827.8,5.00,0.00,29.2,27.6,00.0,37.9,31.1,24.3,0002.5,0020.33,0009.60,0007.14
2022-08-04 19:54:00,,0827.8,5.00,0.00,29.2,27.8,00.0,37.9,31.1,24.5,0002.6,0020.32,0009.62,0007.16
2022-08-04 19:55:00,,0827.8,4.98,0.00,29.3,28.0,00.0,37.9,31.2,24.6,0002.4,0019.88,0009.57,0007.17
2022-08-04 19:56:00,,0827.7,5.00,0.00,29.3,28.1,00.0,38.0,31.3,24.4,0002.4,0020.74,0009.61,0007.19
2022-08-04 19:57:00,,0827.8,5.01,0.00,29.3,27.6,00.0,37.9,31.2,24.4,0002.5,0021.38,0009.72,0007.21
2022-08-04 19:58:00,,0827.7,5.00,0.00,29.2,27.1,00.0,37.9,31.0,24.6,0002.8,0021.69,0009.74,0007.23
2022-08-04 19:59:00,,0827.7,5.01,0.00,29.2,27.1,00.0,37.9,31.0,24.7,0002.8,0020.14,0009.70,0007.23
